timestamp,surface_pressure_avg,surface_temp_avg,battery_voltage,lat,long
2019-05-06 00:00:00+00:00,368.333,2.0,13.05,47.84626,-54.09684
2019-05-06 00:10:00+00:00,366.643,2.0,12.89,47.84626,-54.09684
2019-05-06 00:20:00+00:00,363.6678,1.99,12.97,47.84626,-54.09684
2019-05-06 00:30:00+00:00,364.8763,1.93,12.97,47.84626,-54.09684
2019-05-06 00:40:00+00:00,362.1063,1.9,12.97,47.84626,-54.09684
2019-05-06 00:50:00+00:00,357.0529,1.92,12.97,47.84626,-54.09684
2019-05-06 01:00:00+00:00,355.6678,1.93,12.89,47.84626,-54.09684
2019-05-06 01:10:00+00:00,352.478,1.9,12.81,47.84626,-54.09684
2019-05-06 01:20:00+00:00,347.3112,1.91,12.89,47.84626,-54.09684
2019-05-06 01:30:00+00:00,342.7579,1.94,12.89,47.84626,-54.09684
2019-05-06 01:40:00+00:00,341.983,1.96,12.97,47.84626,-54.09684
2019-05-06 01:50:00+00:00,338.318,1.98,12.97,47.84626,-54.09684
2019-05-06 02:00:00+00:00,335.5264,1.98,12.89,47.84626,-54.09684
2019-05-06 02:10:00+00:00,333.6512,1.99,12.81,47.84626,-54.09684
2019-05-06 02:20:00+00:00,326.3997,2.0,12.89,47.84626,-54.09684
2019-05-06 02:30:00+00:00,319.6764,2.0,12.89,47.84626,-54.09684
2019-05-06 02:40:00+00:00,313.9647,2.0,12.89,47.84626,-54.09684
2019-05-06 02:50:00+00:00,307.0731,2.0,12.97,47.84626,-54.09684
2019-05-06 03:00:00+00:00,295.7581,2.08,12.81,47.84626,-54.09684
2019-05-06 03:10:00+00:00,286.7814,2.09,12.81,47.84626,-54.09684
2019-05-06 03:20:00+00:00,278.2664,2.09,12.89,47.84626,-54.09684
2019-05-06 03:30:00+00:00,265.2464,2.09,12.89,47.84626,-54.09684
2019-05-06 03:40:00+00:00,252.2414,2.1,12.89,47.84626,-54.09684
2019-05-06 03:50:00+00:00,245.1848,2.1,12.89,47.84626,-54.09684
2019-05-06 04:00:00+00:00,238.0331,2.1,12.81,47.84626,-54.09684
2019-05-06 04:10:00+00:00,226.2448,2.1,12.73,47.84626,-54.09684
2019-05-06 04:20:00+00:00,215.5331,2.13,12.81,47.84626,-54.09684
2019-05-06 04:30:00+00:00,209.8498,2.16,12.81,47.84626,-54.09684
2019-05-06 04:40:00+00:00,202.2015,2.19,12.89,47.84626,-54.09684
2019-05-06 04:50:00+00:00,190.6365,2.2,12.89,47.84626,-54.09684
2019-05-06 05:00:00+00:00,181.5665,2.2,12.81,47.84626,-54.09684
2019-05-06 05:10:00+00:00,180.1865,2.2,12.73,47.84626,-54.09684
2019-05-06 05:20:00+00:00,178.3998,2.2,12.81,47.84626,-54.09684
2019-05-06 05:30:00+00:00,171.7515,2.22,12.81,47.84626,-54.09684
2019-05-06 05:40:00+00:00,170.8998,2.24,12.81,47.84626,-54.09684
2019-05-06 05:50:00+00:00,174.3032,2.23,12.89,47.84626,-54.09684
2019-05-06 06:00:00+00:00,172.2898,2.24,12.81,47.84626,-54.09684
2019-05-06 06:10:00+00:00,167.8965,2.26,12.73,47.84626,-54.09684
2019-05-06 06:20:00+00:00,167.5248,2.27,12.81,47.84626,-54.09684
2019-05-06 06:30:00+00:00,170.5115,2.26,12.81,47.84626,-54.09684
2019-05-06 06:40:00+00:00,172.1448,2.2,12.81,47.84626,-54.09684
2019-05-06 06:50:00+00:00,172.3766,2.2,12.81,47.84626,-54.09684
2019-05-06 07:00:00+00:00,173.3499,2.2,12.73,47.84626,-54.09684
2019-05-06 07:10:00+00:00,177.6681,2.2,12.65,47.84626,-54.09684
2019-05-06 07:20:00+00:00,181.5348,2.24,12.73,47.84626,-54.09684
2019-05-06 07:30:00+00:00,185.6998,2.25,12.73,47.84626,-54.09684
2019-05-06 07:40:00+00:00,193.6465,2.25,12.81,47.84626,-54.09684
2019-05-06 07:50:00+00:00,198.8715,2.24,12.81,47.84626,-54.09684
2019-05-06 08:00:00+00:00,199.4214,2.32,12.73,47.84626,-54.09684
2019-05-06 08:10:00+00:00,204.7681,2.4,12.65,47.84626,-54.09684
2019-05-06 08:20:00+00:00,213.3665,2.5,12.73,47.84626,-54.09684
2019-05-06 08:30:00+00:00,218.8281,2.5,12.73,47.84626,-54.09684
2019-05-06 08:40:00+00:00,225.3781,2.45,12.81,47.84626,-54.09684
2019-05-06 08:50:00+00:00,229.9398,2.4,12.89,47.84626,-54.09684
2019-05-06 09:00:00+00:00,233.078,2.3,12.89,47.84626,-54.09684
2019-05-06 09:10:00+00:00,238.5681,2.3,12.89,47.84626,-54.09684
2019-05-06 09:20:00+00:00,248.5948,2.4,13.21,47.84626,-54.09684
2019-05-06 09:30:00+00:00,254.5663,2.3,13.44,47.84626,-54.09684
2019-05-06 09:40:00+00:00,256.3214,2.2,13.68,47.84626,-54.09684
2019-05-06 09:50:00+00:00,259.6914,2.2,13.68,47.84626,-54.09684
2019-05-06 10:00:00+00:00,269.8748,2.2,13.68,47.84626,-54.09684
2019-05-06 10:10:00+00:00,277.428,2.2,13.76,47.84626,-54.09684
2019-05-06 10:20:00+00:00,282.563,2.2,14.0,47.84626,-54.09684
2019-05-06 10:30:00+00:00,289.6663,2.2,14.24,47.84626,-54.09684
2019-05-06 10:40:00+00:00,297.543,2.2,14.4,47.84626,-54.09684
2019-05-06 10:50:00+00:00,302.5846,2.2,14.48,47.84626,-54.09684
2019-05-06 11:00:00+00:00,311.0613,2.2,14.56,47.84626,-54.09684
2019-05-06 11:10:00+00:00,320.3563,2.17,14.8,47.84626,-54.09684
2019-05-06 11:20:00+00:00,324.8879,2.1,15.11,47.84626,-54.09684
2019-05-06 11:30:00+00:00,328.5197,2.1,15.11,47.84626,-54.09684
2019-05-06 11:40:00+00:00,337.408,2.1,15.04,47.84626,-54.09684
2019-05-06 11:50:00+00:00,343.7247,2.1,14.96,47.84626,-54.09684
2019-05-06 12:00:00+00:00,344.1095,2.1,14.64,47.84626,-54.09684
2019-05-06 12:10:00+00:00,344.1113,2.1,14.8,47.84626,-54.09684
2019-05-06 12:20:00+00:00,346.3181,2.1,15.11,47.84626,-54.09684
2019-05-06 12:30:00+00:00,347.2613,2.1,14.56,47.84626,-54.09684
2019-05-06 12:40:00+00:00,346.9547,2.1,14.88,47.84626,-54.09684
2019-05-06 12:50:00+00:00,348.8112,2.1,15.04,47.84626,-54.09684
2019-05-06 13:00:00+00:00,346.6946,2.1,14.88,47.84626,-54.09684
2019-05-06 13:10:00+00:00,340.0013,2.1,14.88,47.84626,-54.09684
2019-05-06 13:20:00+00:00,337.1479,2.1,14.8,47.84626,-54.09684
2019-05-06 13:30:00+00:00,334.158,2.1,14.88,47.84626,-54.09684
2019-05-06 13:40:00+00:00,328.2796,2.1,14.64,47.84626,-54.09684
2019-05-06 13:50:00+00:00,322.4597,2.1,14.48,47.84626,-54.09684
2019-05-06 14:00:00+00:00,323.7395,2.15,14.64,47.84626,-54.09684
2019-05-06 14:10:00+00:00,321.983,2.19,14.4,47.84626,-54.09684
2019-05-06 14:20:00+00:00,314.2831,2.22,14.8,47.84626,-54.09684
2019-05-06 14:30:00+00:00,308.3763,2.3,14.88,47.84626,-54.09684
2019-05-06 14:40:00+00:00,304.938,2.34,14.72,47.84626,-54.09684
2019-05-06 14:50:00+00:00,298.193,2.4,14.48,47.84626,-54.09684
2019-05-06 15:00:00+00:00,288.2897,2.4,14.48,47.84626,-54.09684
2019-05-06 15:10:00+00:00,284.368,2.5,14.48,47.84626,-54.09684
2019-05-06 15:20:00+00:00,278.5547,2.59,14.72,47.84626,-54.09684
2019-05-06 15:30:00+00:00,271.2964,2.7,14.56,47.84626,-54.09684
2019-05-06 15:40:00+00:00,262.9464,2.6,14.48,47.84626,-54.09684
2019-05-06 15:50:00+00:00,255.1964,2.6,14.64,47.84626,-54.09684
2019-05-06 16:00:00+00:00,244.0198,2.6,14.56,47.84626,-54.09684
2019-05-06 16:10:00+00:00,234.9481,2.6,14.72,47.84626,-54.09684
2019-05-06 16:20:00+00:00,226.8181,2.61,14.56,47.84626,-54.09684
2019-05-06 16:30:00+00:00,218.9848,2.68,14.56,47.84626,-54.09684
2019-05-06 16:40:00+00:00,211.1765,2.7,14.56,47.84626,-54.09684
2019-05-06 16:50:00+00:00,203.6148,2.7,14.48,47.84626,-54.09684
2019-05-06 17:00:00+00:00,196.1815,2.71,14.4,47.84626,-54.09684
2019-05-06 17:10:00+00:00,191.0781,2.76,14.4,47.84626,-54.09684
2019-05-06 17:20:00+00:00,193.0848,2.77,14.56,47.84626,-54.09684
2019-05-06 17:30:00+00:00,191.2998,2.79,14.56,47.84626,-54.09684
2019-05-06 17:40:00+00:00,182.5531,2.8,14.48,47.84626,-54.09684
2019-05-06 17:50:00+00:00,178.8248,2.8,14.4,47.84626,-54.09684
2019-05-06 18:00:00+00:00,180.0031,2.8,14.32,47.84626,-54.09684
2019-05-06 18:10:00+00:00,181.5598,2.86,14.32,47.84626,-54.09684
2019-05-06 18:20:00+00:00,182.5414,2.9,14.4,47.84626,-54.09684
2019-05-06 18:30:00+00:00,187.3514,2.8,14.32,47.84626,-54.09684
2019-05-06 18:40:00+00:00,191.1564,2.79,14.32,47.84626,-54.09684
2019-05-06 18:50:00+00:00,189.5931,2.79,14.32,47.84626,-54.09684
2019-05-06 19:00:00+00:00,193.4881,2.77,14.24,47.84626,-54.09684
2019-05-06 19:10:00+00:00,201.2798,3.1,14.08,47.84626,-54.09684
2019-05-06 19:20:00+00:00,200.8665,3.0,14.16,47.84626,-54.09684
2019-05-06 19:30:00+00:00,197.7364,3.1,14.16,47.84626,-54.09684
2019-05-06 19:40:00+00:00,200.9514,3.2,14.16,47.84626,-54.09684
2019-05-06 19:50:00+00:00,205.2681,3.19,14.16,47.84626,-54.09684
2019-05-06 20:00:00+00:00,209.9898,3.08,14.08,47.84626,-54.09684
2019-05-06 20:10:00+00:00,212.5514,3.1,14.0,47.84626,-54.09684
2019-05-06 20:20:00+00:00,219.4014,3.2,14.0,47.84626,-54.09684
2019-05-06 20:30:00+00:00,230.6497,3.3,14.0,47.84626,-54.09684
2019-05-06 20:40:00+00:00,240.4648,3.4,14.08,47.84626,-54.09684
2019-05-06 20:50:00+00:00,243.1864,3.4,14.0,47.84626,-54.09684
2019-05-06 21:00:00+00:00,244.4414,3.5,14.0,47.84626,-54.09684
2019-05-06 21:10:00+00:00,252.0648,3.56,13.84,47.84626,-54.09684
2019-05-06 21:20:00+00:00,258.6647,3.2,13.84,47.84626,-54.09684
2019-05-06 21:30:00+00:00,261.0031,3.08,13.84,47.84626,-54.09684
2019-05-06 21:40:00+00:00,264.9314,3.0,13.84,47.84626,-54.09684
2019-05-06 21:50:00+00:00,272.0281,3.07,13.84,47.84626,-54.09684
2019-05-06 22:00:00+00:00,278.4097,3.1,13.76,47.84626,-54.09684
2019-05-06 22:10:00+00:00,285.7498,2.8,13.6,47.84626,-54.09684
2019-05-06 22:20:00+00:00,295.0647,2.81,13.6,47.84626,-54.09684
2019-05-06 22:30:00+00:00,302.3181,2.83,13.6,47.84626,-54.09684
2019-05-06 22:40:00+00:00,308.5463,2.8,13.53,47.84626,-54.09684
2019-05-06 22:50:00+00:00,317.708,2.83,13.53,47.84626,-54.09684
2019-05-06 23:00:00+00:00,329.498,2.82,13.37,47.84626,-54.09684
2019-05-06 23:10:00+00:00,337.8079,2.8,13.29,47.84626,-54.09684
2019-05-06 23:20:00+00:00,343.423,2.8,13.21,47.84626,-54.09684
2019-05-06 23:30:00+00:00,350.3347,2.8,13.21,47.84626,-54.09684
2019-05-06 23:40:00+00:00,356.5529,2.8,13.21,47.84626,-54.09684
2019-05-06 23:50:00+00:00,362.1212,2.8,13.21,47.84626,-54.09684
